Weather History for Lafayette, IN

Change the Weather History Date:

Saturday, December 28, 2013

  Actual Average Record
Temperature  
Mean Temperature 42 °F 27 °F  
Max Temperature 51 °F 35 °F 68 °F (1984)
Min Temperature 33 °F 20 °F 0 °F (2000)
Degree Days  
Heating Degree Days 23 38  
Month to date heating degree days 1033 960  
Since 1 July heating degree days 2209 2061  
Cooling Degree Days 0 0  
Month to date cooling degree days 0 0  
Year to date cooling degree days 884 983  
Moisture  
Dew Point 30 °F    
Average Humidity 66    
Maximum Humidity 82    
Minimum Humidity 50    
Precipitation  
Precipitation 0.00 in 0.07 in 1.43 in (1948)
Month to date precipitation 2.58 2.31  
Year to date precipitation 40.06 36.38  
Sea Level Pressure  
Sea Level Pressure 30.11 in    
Wind  
Wind Speed 8 mph (SW)    
Max Wind Speed 15 mph    
Max Gust Speed 21 mph    
Visibility 10 miles    
Events      
T = Trace of Precipitation, MM = Missing Value Source: NWS Daily Summary

Daily Weather History Graph

Daily Weather History Graph

Search for Another Location

Airport:

Trip Planner

Search our weather history database for the weather conditions in past years. The results will help you decide how hot, cold, wet, or windy it might be!

Date:

Astronomy

Dec. 28, 2013 Rise Set
Actual Time 8:10 AM EST 5:28 PM EST
Civil Twilight 7:39 AM EST 5:59 PM EST
Nautical Twilight 7:05 AM EST 6:33 PM EST
Astronomical Twilight 6:31 AM EST 7:07 PM EST
Moon 3:46 AM EST (12/28) 2:19 PM EST (12/28)
Length of Visible Light 10h 20m
Length of Day
9h 18m
Waning Crescent, 19% of the Moon is Illuminated
Dec 28
Waning Crescent
Jan 1
New
Jan 7
First Quarter
Jan 15
Full
Jan 24
Last Quarter

Hourly Weather History & Observations

Time (EST) Temp. Windchill Dew Point Humidity Pressure Visibility Wind Dir Wind Speed Gust Speed Precip Events Conditions
12:54 AM 36.0 °F 29.6 °F 30.0 °F 79% 30.20 in 10.0 mi SW 8.1 mph - N/A   Clear
1:54 AM 36.0 °F 30.3 °F 30.0 °F 79% 30.18 in 10.0 mi SW 6.9 mph - N/A   Clear
2:54 AM 36.0 °F 29.6 °F 30.0 °F 79% 30.18 in 10.0 mi WSW 8.1 mph - N/A   Clear
3:54 AM 36.0 °F 29.6 °F 30.0 °F 79% 30.19 in 10.0 mi SW 8.1 mph - N/A   Clear
4:54 AM 34.0 °F 28.0 °F 28.9 °F 82% 30.18 in 10.0 mi SW 6.9 mph - N/A   Clear
5:54 AM 34.0 °F 26.6 °F 28.9 °F 82% 30.18 in 10.0 mi SW 9.2 mph - N/A   Clear
6:54 AM 34.0 °F 28.0 °F 28.9 °F 82% 30.19 in 10.0 mi SW 6.9 mph - N/A   Clear
7:54 AM 34.0 °F 29.8 °F 28.0 °F 79% 30.18 in 10.0 mi SSW 4.6 mph - N/A   Clear
8:54 AM 34.0 °F 28.8 °F 28.9 °F 82% 30.18 in 10.0 mi WSW 5.8 mph - N/A   Clear
9:54 AM 39.0 °F 34.0 °F 30.0 °F 70% 30.18 in 10.0 mi SW 6.9 mph - N/A   Clear
10:54 AM 41.0 °F 35.2 °F 30.9 °F 67% 30.18 in 10.0 mi SW 9.2 mph - N/A   Clear
11:54 AM 44.1 °F 38.1 °F 32.0 °F 63% 30.16 in 10.0 mi SW 11.5 mph - N/A   Clear
12:54 PM 48.0 °F - 32.0 °F 54% 30.11 in 10.0 mi SW 9.2 mph - N/A   Clear
1:54 PM 50.0 °F - 32.0 °F 50% 30.11 in 10.0 mi SW 11.5 mph 20.7 mph N/A   Clear
2:54 PM 51.1 °F - 33.1 °F 50% 30.08 in 10.0 mi SSW 10.4 mph - N/A   Clear
3:54 PM 50.0 °F - 32.0 °F 50% 30.06 in 10.0 mi SSW 9.2 mph - N/A   Clear
4:54 PM 48.0 °F - 30.9 °F 52% 30.06 in 10.0 mi SSW 6.9 mph - N/A   Clear
5:54 PM 44.1 °F 41.5 °F 30.9 °F 60% 30.06 in 10.0 mi South 4.6 mph - N/A   Clear
6:54 PM 42.1 °F 37.1 °F 30.9 °F 65% 30.05 in 10.0 mi South 8.1 mph - N/A   Clear
7:54 PM 39.9 °F 35.1 °F 30.0 °F 68% 30.04 in 10.0 mi South 6.9 mph - N/A   Clear
8:54 PM 39.0 °F 34.0 °F 30.0 °F 70% 30.02 in 10.0 mi SSW 6.9 mph - N/A   Clear
9:54 PM 37.9 °F 34.4 °F 30.0 °F 73% 29.99 in 10.0 mi SSW 4.6 mph - N/A   Clear
10:54 PM 37.9 °F 33.5 °F 28.9 °F 70% 29.97 in 10.0 mi SSW 5.8 mph - N/A   Clear
11:54 PM 37.9 °F 32.7 °F 28.0 °F 68% 29.94 in 10.0 mi South 6.9 mph - N/A   Clear